Regional Weather Roundup
Issued by NWS

Home | Current Version | Previous Version | Text Only | Print | Product List | Glossary Off
Versions: 1 2 3 4 5 6 7 8 9 10 11 12 13 14 15 16 17 18 19 20 21 22 23 24 25 26 27 28 29 30 31 32 33 34 35 36 37 38 39 40 41 42 43 44 45 46 47 48 49 50

000
ASUS43 KBIS 020210
RWRND

NORTH DAKOTA REGIONAL WEATHER ROUNDUP
NATIONAL WEATHER SERVICE BISMARCK ND
900 PM CDT SAT AUG 01 2015

NOTE: "FAIR" INDICATES FEW OR NO CLOUDS BELOW 12,000 FEET WITH NO
SIGNIFICANT WEATHER AND/OR OBSTRUCTIONS TO VISIBILITY.


NDZ001>003-009>011-017-020300-
NORTHWEST NORTH DAKOTA

CITY           SKY/WX    TMP DP  RH WIND       PRES   REMARKS
WILLISTON      CLEAR     86  50  28 NW22G30   29.77R
MINOT          PTCLDY    82  56  40 SE3       29.69S
MINOT AFB      PTCLDY    81  62  52 S6        29.67F
$$

NDZ018>021-031>035-040>046-020300-
SOUTHWEST NORTH DAKOTA

CITY           SKY/WX    TMP DP  RH WIND       PRES   REMARKS
BISMARCK       CLEAR     76  63  64 S7        29.72F
DICKINSON      CLEAR     79  45  29 NW9       29.78R
GARRISON         N/A     73  65  75 S8        29.70F
HETTINGER ARPT CLEAR     80  45  28 S7        29.81F
$$

NDZ004>008-012>016-024-026-027-054-020300-
NORTHEAST NORTH DAKOTA

CITY           SKY/WX    TMP DP  RH WIND       PRES   REMARKS
GRAND FORKS    PTCLDY    76  64  66 SW6       29.68F
GRND FRKS AFB  CLEAR     74  64  71 SW6       29.69F
DEVILS LAKE    CLEAR     79  59  50 S7        29.69F
$$

NDZ022-023-025-028>030-036>039-047>053-020300-
SOUTHEAST NORTH DAKOTA

CITY           SKY/WX    TMP DP  RH WIND       PRES   REMARKS
FARGO          CLEAR     77  65  66 SE5       29.71F
JAMESTOWN      CLEAR     76  68  76 E3        29.74S
$$




USA.gov is the U.S. government's official web portal to all federal, state and local government web resources and services.